LIFELN1 CYXU-ZZZZ

Flight info

Callsign LIFELN1
Flight time N/A
Altitude
Route VFR SOUTHBOUND
Aircraft A139

Departure

Time 2026-04-28 02:50
Airport London International Airport (CYXU)

Arrival

Time N/A
Airport ZZZZ
Time Latitude Longitude Altitude Speed Heading
2026-04-28 02:46 43.03575 -81.16433 908 ft 0 kts 333°
2026-04-28 02:46 43.03576 -81.16430 908 ft 0 kts 49°
2026-04-28 02:47 43.03578 -81.16422 910 ft 1 kts 45°
2026-04-28 02:47 43.03598 -81.16376 930 ft 14 kts 64°
2026-04-28 02:48 43.03628 -81.16207 912 ft 22 kts 76°
2026-04-28 02:48 43.03673 -81.15903 902 ft 33 kts 69°
2026-04-28 02:48 43.03683 -81.15818 903 ft 1 kts 69°
2026-04-28 02:48 43.03691 -81.15780 910 ft 8 kts 68°
2026-04-28 02:49 43.03718 -81.15750 907 ft 7 kts 347°
2026-04-28 02:49 43.03863 -81.15892 904 ft 44 kts 318°
2026-04-28 02:49 43.04034 -81.16016 907 ft 0 kts 13°
2026-04-28 02:49 43.04093 -81.15939 1045 ft 22 kts 107°
2026-04-28 02:50 43.04038 -81.15863 1517 ft 33 kts 147°
2026-04-28 02:50 43.03708 -81.15781 1832 ft 78 kts 231°
2026-04-28 02:50 43.03851 -81.15656 1715 ft 87 kts 123°
2026-04-28 02:50 43.03328 -81.14969 1263 ft 103 kts 140°
2026-04-28 02:51 43.02714 -81.14248 976 ft 121 kts 139°
2026-04-28 02:51 43.02299 -81.13872 1291 ft 43 kts 215°
2026-04-28 02:51 43.01804 -81.13726 1020 ft 83 kts 180°
2026-04-28 02:51 43.01346 -81.13818 994 ft 12 kts 108°
2026-04-28 02:52 43.01361 -81.13804 907 ft 2 kts 16°